Home   Weather   Los Angeles   Past weeks

Flag for USA Past Weather in Los Angeles, California, USA — Yesterday and Last 2 Weeks

Now
51 °F

Clear.


Feels Like: 51 °F
Forecast: 46 / 67 °F
Wind: No wind

Location: Los Angeles / USC Campus Downtown

Current Time: Jan 17, 2017 at 3:01:34 am

Latest Report: Jan 17, 2017 at 1:47 am


Visibility: 9 mi

Pressure: 30.05 "Hg

Humidity: 86%

Dew Point: 47 °F

Location of Los AngelesLocation

Past Weather in Los Angeles — Graph

°F

Los Angeles Temperature Yesterday

Maximum temperature yesterday: 65 °F (at 12:47 pm)
Minimum temperature yesterday: 52 °F (at 4:47 am)
Average temperature yesterday: 58 °F

High & Low Weather Summary for the Past Weeks

 TemperatureHumidityPressure
High78 °F (Jan 8, 12:47 pm)97% (Jan 4, 10:47 pm)30.21 "Hg (Jan 4, 10:47 pm)
Low47 °F (Jan 4, 3:47 am)29% (Jan 8, 3:47 pm)29.91 "Hg (Jan 12, 1:47 pm)
Average57 °F79%30.06 "Hg
* Reported Jan 2 1:04 am — Jan 17 1:47 am, Los Angeles, Weather by CustomWeather, © 2017

Note: Actual official high and low records may vary slightly from our data, if they occured in-between our weather recording intervals... More about our weather records

Advertising

Los Angeles Weather History for the Previous 24 Hours

Scroll right to see more
 ConditionsComfort  
Time TempWeatherWind HumidityBarometerVisibility
1:47 am
Tue, Jan 17
51 °FClear.No wind86%30.05 "Hg9 mi
12:47 am52 °FClear.No wind86%30.05 "Hg10 mi
11:47 pm
Mon, Jan 16
52 °FClear.No wind89%30.07 "Hg8 mi
10:47 pm53 °FClear.No wind89%30.06 "Hg7 mi
9:47 pm54 °FClear.No wind90%30.06 "Hg8 mi
8:47 pm56 °FClear.No wind87%30.05 "Hg10 mi
7:47 pm56 °FClear.No wind87%30.04 "Hg10 mi
6:47 pm56 °FClear.No wind87%30.03 "Hg10 mi
5:47 pm58 °FClear.No wind81%30.03 "Hg10 mi
4:47 pm60 °FSunny.3 mph69%30.02 "Hg10 mi
3:47 pm62 °FSunny.7 mph65%30.02 "Hg10 mi
2:47 pm63 °FSunny.3 mph65%30.01 "Hg10 mi
1:47 pm65 °FSunny.3 mph59%30.01 "Hg10 mi
12:47 pm65 °FSunny.No wind56%30.02 "Hg10 mi
11:47 am64 °FPassing clouds.No wind58%30.05 "Hg10 mi
10:47 am62 °FPassing clouds.No wind62%30.09 "Hg10 mi
10:37 am61 °FScattered clouds.No wind65%30.09 "Hg10 mi
9:47 am60 °FSunny.No wind67%30.10 "Hg10 mi
9:03 am58 °FScattered clouds.No wind75%30.10 "Hg10 mi
7:47 am55 °FOvercast.No wind83%30.08 "Hg10 mi
6:47 am55 °FOvercast.No wind87%30.06 "Hg10 mi
5:47 am55 °FOvercast.No wind87%30.04 "Hg10 mi
4:47 am52 °FMostly cloudy.No wind93%30.04 "Hg9 mi
3:47 am53 °FClear.No wind89%30.03 "Hg10 mi
Weather by CustomWeather, © 2017

See weather overviewHow to use our weather pages